Back to catalog

STARLINK-30785

AliveCommunicationsVLEO
NORAD 58191·PAYLOAD·🇺🇸 United States

Launched Oct 30, 2023 from Cape Canaveral Space Force Station

Loading…

Next Passes (next 24 hours)

TLE

FreshSource: CelesTrak SupGP

Epoch: Sep 14, 2026, 14:42 UTC

1 58191C 23167S   26257.61298611  .00038443  00000+0  13925-2 0  2579
2 58191  43.0007 156.5935 0001578 264.4682 211.8150 15.27556074    18

Track STARLINK-30785 in real time with AllMySat

Download on the App Store